Overview Statistics Trail Chart Weather Telemetry Raw packets
 

This is the latest recevied weather packets stored in our database for station/object IR9AK-10. If no packets are shown the sender has not sent any weather packets the latest 10 day(s).

<< 27 28 29 30 31 32 33 >>
Time Temp. Humidity Pressure Rain* Wind** Luminosity Snow
1788177751 41.67° C 34% 1060.1 hPa - - - -
1788177152 41.11° C 33% 1060.1 hPa - - - -
1788176552 41.11° C 34% 1060.4 hPa - - - -
1788175953 41.67° C 34% 1060.3 hPa - - - -
1788175355 41.11° C 34% 1060.3 hPa - - - -
1788174755 41.67° C 34% 1060.4 hPa - - - -
1788174155 41.67° C 34% 1060.5 hPa - - - -
1788173556 41.11° C 33% 1060.5 hPa - - - -
1788172956 41.67° C 34% 1060.5 hPa - - - -
1788172357 41.67° C 33% 1060.5 hPa - - - -
1788171759 41.11° C 35% 1060.5 hPa - - - -
1788171159 41.11° C 35% 1060.5 hPa - - - -
1788170560 41.11° C 36% 1060.5 hPa - - - -
1788169960 41.11° C 35% 1060.5 hPa - - - -
1788169361 41.11° C 36% 1060.3 hPa - - - -
1788168762 41.11° C 34% 1060.2 hPa - - - -
1788168162 41.11° C 33% 1060.3 hPa - - - -
1788167562 40.56° C 32% 1060.2 hPa - - - -
1788166963 41.11° C 33% 1060.2 hPa - - - -
1788166363 41.11° C 28% 1060.2 hPa - - - -
1788165764 41.11° C 29% 1060.1 hPa - - - -
1788165165 41.11° C 34% 1060.1 hPa - - - -
1788164566 40.56° C 31% 1060.1 hPa - - - -
1788163966 40.56° C 34% 1060.1 hPa - - - -
1788163367 40.56° C 10% - - - - -

* Rain since midnight (hover to see other rain measurements)
** Current wind speed in m/s (hover to see current wind gust speed)